Terminal Aerodrome Forecast
Issued by NWS

Home | Current Version | Previous Version | Text Only | Print | Product List | Glossary On
Versions: 1 2 3 4 5 6 7 8 9 10 11 12 13 14 15 16 17 18
883
FTUS46 KLOX 262352 AAA
TAFWJF
TAF AMD
KWJF 262352Z 2700/2724 26025G35KT 5SM HZ SKC
     FM270200 26015G25KT P6SM SCT150
     FM271200 26025G35KT P6SM SCT200
     FM271700 28020G30KT P6SM SKC
     FM272100 28030G40KT P6SM SKC=

USA.gov is the U.S. government's official web portal to all federal, state and local government web resources and services.